Paganella, Italy

7:32 AM CET on February 28, 2017 (GMT +0100)
Paganella

Weather History for LIVP - October, 2012

Change the Weather History Date:

Thursday, October 25, 2012

  Actual Average Record
Temperature  
Mean Temperature 46 °F -  
Max Temperature 50 °F 36 °F 50 °F (2012)
Min Temperature 42 °F 28 °F 12 °F (2003)
Degree Days  
Heating Degree Days 19    
Moisture  
Dew Point 35 °F    
Average Humidity 64    
Maximum Humidity 87    
Minimum Humidity 43    
Precipitation  
Precipitation 0.00 in 0.07 in - ()
Sea Level Pressure  
Sea Level Pressure 30.01 in    
Wind  
Wind Speed 4 mph ()    
Max Wind Speed 7 mph    
Max Gust Speed -    
Averages and records for this station are not official NWS values.
T = Trace of Precipitation, MM = Missing Value Source: Averaged Metar Reports

Daily Weather History Graph

Daily Weather History Graph

Search for Another Location

Airport or City:

Trip Planner

Search our weather history database for the weather conditions in past years. The results will help you decide how hot, cold, wet, or windy it might be!

Date:

Astronomy

Oct. 25, 2012 Rise Set
Actual Time 7:47 AM CEST 6:12 PM CEST
Civil Twilight 7:16 AM CEST 6:42 PM CEST
Nautical Twilight 6:41 AM CEST 7:17 PM CEST
Astronomical Twilight 6:06 AM CEST 7:52 PM CEST
Moon 4:00 PM CEST (10/25) 3:13 AM CEST (10/25)
Length of Visible Light 11h 26m
Length of Day
10h 24m
Waxing Gibbous, 82% of the Moon is Illuminated
Oct 25
Waxing Gibbous
Oct 29
Full
Nov 7
Last Quarter
Nov 13
New
Nov 20
First Quarter

Hourly Weather History & Observations

Time (CEST) Temp. Windchill Dew Point Humidity Pressure Visibility Wind Dir Wind Speed Gust Speed Precip Events Conditions
12:55 AM 42.8 °F 38.6 °F 24.8 °F 49% 30.09 in - SW 6.9 mph - N/A   Clear
1:55 AM 42.8 °F 38.6 °F 35.6 °F 76% 30.06 in - SW 6.9 mph - N/A   Clear
2:00 AM 44 °F - 35 °F 61%  in 25 mi SW 6.9 mph - -  
2:55 AM 42.8 °F 38.6 °F 35.6 °F 76% 30.06 in - WSW 6.9 mph - N/A   Clear
3:55 AM 42.8 °F 40.1 °F 35.6 °F 76% 30.06 in - West 4.6 mph - N/A   Clear
4:55 AM 42.8 °F 40.1 °F 37.4 °F 81% 30.04 in - NNW 4.6 mph - N/A   Clear
5:00 AM 43 °F - 37 °F 72%  in 25 mi NNW 4.6 mph - -  
5:55 AM 44.6 °F 42.2 °F 37.4 °F 76% 30.04 in - North 4.6 mph - N/A   Clear
6:55 AM 44.6 °F 42.2 °F 35.6 °F 71% 30.01 in - NNE 4.6 mph - N/A   Clear
7:55 AM 44.6 °F 42.2 °F 35.6 °F 71% 30.01 in - NE 4.6 mph - N/A   Clear
8:00 AM 44 °F - 36 °F 64%  in 37 mi NE 4.6 mph - -  
8:55 AM 44.6 °F 43.1 °F 35.6 °F 71% 30.01 in - NE 3.5 mph - N/A   Clear
9:55 AM 46.4 °F - 39.2 °F 76% 30.04 in - Variable 2.3 mph - N/A   Clear
10:55 AM 48.2 °F - 37.4 °F 66% 30.04 in - Variable 3.5 mph - N/A   Clear
11:00 AM 48 °F - 38 °F 59%  in 31 mi 3.5 mph - -  
11:55 AM 48.2 °F - 32.0 °F 54% 30.04 in - Variable 3.5 mph - N/A   Clear
12:55 PM 50.0 °F - 33.8 °F 54% 30.04 in - ENE 6.9 mph - N/A   Clear
1:55 PM 48.2 °F - 33.8 °F 58% 30.01 in - Calm Calm - N/A   Clear
2:00 PM 49 °F - 33 °F 43%  in 31 mi Calm Calm - -  
2:55 PM 50.0 °F - 35.6 °F 58% 30.01 in - Calm Calm - N/A   Clear
3:55 PM 50.0 °F - 37.4 °F 62% 29.98 in - Calm Calm - N/A   Clear
4:55 PM 50.0 °F - 37.4 °F 62% 29.98 in - SSW 3.5 mph - N/A   Clear
5:00 PM 50 °F - 38 °F 53%  in 31 mi SSW 3.5 mph - -  
5:55 PM 50.0 °F - 35.6 °F 58% 29.98 in - Variable 2.3 mph - N/A   Clear
6:55 PM 46.4 °F 44.3 °F 32.0 °F 57% 29.98 in - South 4.6 mph - N/A   Clear
7:55 PM 46.4 °F 44.3 °F 32.0 °F 57% 29.98 in - SSW 4.6 mph - N/A   Clear
8:00 PM 46 °F - 32 °F 47%  in 25 mi SSW 4.6 mph - -   Clear
8:55 PM 46.4 °F 45.2 °F 33.8 °F 62% 29.98 in - WSW 3.5 mph - N/A   Clear
9:55 PM 44.6 °F - 32.0 °F 61% 29.98 in - NW 2.3 mph - N/A   Clear
10:55 PM 44.6 °F 40.7 °F 37.4 °F 76% 29.98 in - South 6.9 mph - N/A   Clear
11:55 PM 44.6 °F 43.1 °F 41.0 °F 87% 29.95 in - West 3.5 mph - N/A   Clear